Home > Weather > Ratingen > Past weeks

Flag for Germany Weather for the Past 2 Weeks in Ratingen, North Rhine-Westphalia, Germany

Now
39 °F

Clear.


Feels Like: 32 °F
Forecast: 39 / 50 °F
Wind: 12 mph from Southeast

Location: Duesseldorf

Current Time: Apr 29, 2016 at 2:10:38 AM

Latest Report: Apr 29, 2016 at 1:20 AM


Visibility: 10 mi

Pressure: 29.98 "Hg

Humidity: 93%

Dew Point: 37 °F

Location of RatingenLocation

Historic Weather in Ratingen — Graph

°F

Ratingen Temperature Yesterday

Maximum temperature yesterday: 50 °F (at 12:50 PM)
Minimum temperature yesterday: 37 °F (at 12:20 AM)
Average temperature yesterday: 42 °F

High & Low Weather Summary for the Past Weeks

 TemperatureHumidityPressure
High68 °F (Apr 21, 3:50 PM)100% (Apr 14, 1:20 AM)30.48 "Hg (Apr 14, 1:20 AM)
Low32 °F (Apr 18, 5:20 AM)34% (Apr 20, 4:50 PM)29.47 "Hg (Apr 16, 5:20 AM)
Average47 °F71%29.93 "Hg
* Reported Apr 14 12:20 AM — Apr 29 12:20 AM, Ratingen, Weather by CustomWeather, © 2016

Note: Actual official high and low records may vary slightly from our data, if they occured in-between our weather recording intervals... More about our weather records

Advertising

Ratingen Weather History for the Previous 24 Hours

Scroll right to see more
 ConditionsComfort  
Time TempWeatherWind HumidityBarometerVisibility
12:20 AM
Fri, Apr 29
39 °FClear.10 mph93%29.98 "Hg10 mi
11:50 PM
Thu, Apr 28
39 °FClear.8 mph93%29.98 "Hg10 mi
11:20 PM39 °FClear.8 mph87%29.98 "Hg10 mi
10:20 PM39 °FClear.7 mph93%29.98 "Hg10 mi
9:50 PM39 °FScattered clouds.5 mph93%29.98 "HgN/A
9:20 PM41 °FScattered clouds.5 mph93%29.98 "HgN/A
8:50 PM41 °FFog.2 mph93%29.98 "HgN/A
8:20 PM43 °FScattered clouds.5 mph87%29.98 "HgN/A
7:50 PM43 °FScattered clouds.6 mph87%29.98 "HgN/A
7:20 PM43 °FSprinkles. Scattered clouds.8 mph87%29.98 "HgN/A
6:50 PM45 °FSprinkles. Partly sunny.7 mph81%29.98 "HgN/A
6:20 PM46 °FScattered showers. Scattered clouds.3 mph76%29.98 "HgN/A
5:50 PM43 °FRain showers. Broken clouds.13 mph87%29.98 "HgN/A
5:20 PM46 °FSprinkles. Broken clouds.16 mph66%29.95 "HgN/A
4:50 PM50 °FSprinkles. Scattered clouds.14 mph50%29.95 "HgN/A
4:20 PM50 °FScattered clouds.7 mph58%29.95 "HgN/A
3:50 PM50 °FScattered clouds.9 mph50%29.95 "HgN/A
3:20 PM48 °FScattered clouds.10 mph58%29.98 "HgN/A
2:20 PM50 °FScattered clouds.12 mph54%29.95 "HgN/A
1:50 PM50 °FSprinkles. Scattered clouds.12 mph43%29.95 "HgN/A
1:20 PM48 °FSprinkles. Scattered clouds.6 mph54%29.95 "HgN/A
12:50 PM50 °FSprinkles. Scattered clouds.12 mph54%29.98 "HgN/A
12:20 PM48 °FScattered showers. Scattered clouds.3 mph54%29.98 "HgN/A
11:50 AM46 °FScattered clouds.5 mph66%29.98 "HgN/A
11:20 AM45 °FScattered clouds.5 mph76%29.98 "HgN/A
10:20 AM43 °FPartly sunny.5 mph81%29.98 "HgN/A
9:50 AM41 °FScattered clouds.7 mph87%29.98 "HgN/A
9:20 AM41 °FScattered clouds.8 mph87%29.95 "HgN/A
7:50 AM39 °FPartly sunny.6 mph93%29.95 "HgN/A
7:20 AM37 °FScattered clouds.5 mph100%29.95 "HgN/A
6:50 AM37 °FPassing clouds.5 mph100%29.92 "HgN/A
5:50 AM37 °FPartly cloudy.6 mph93%29.92 "Hg4 mi
5:20 AM37 °FPartly cloudy.5 mph100%29.92 "Hg5 mi
4:50 AM37 °FPassing clouds.5 mph93%29.92 "HgN/A
4:20 AM37 °FPassing clouds.7 mph93%29.89 "HgN/A
3:50 AM37 °FPassing clouds.6 mph100%29.89 "HgN/A
3:20 AM37 °FPassing clouds.6 mph93%29.89 "HgN/A
2:50 AM37 °FPartly cloudy.8 mph100%29.89 "HgN/A
2:20 AM37 °FLight rain. Passing clouds.6 mph93%29.89 "HgN/A
Weather by CustomWeather, © 2016

See weather overviewHow to use our weather pages